SCP
0 0 0 0 0 0 0 0 0 0 0 0 0 0 0 0 1 1 1 1 1 1 1 1 1 2 2 2 2 2 2 2 2 2 1 1 1 1 1 1 1 1 1
0 0 0 0 0 0 0 0 0 0 0 0 0 0 0 0 0 1 1 1 1 1 1 1 1 1 2 2 2 2 2 2 2 2 2 1 1 1 1 1 1 1 1
0 0 0 0 0 0 0 0 0 0 0 0 0 0 0 0 0 0 1 1 1 1 1 1 1 1 2 2 2 2 2 2 2 2 2 2 1 1 1 1 1 1 1
0 0 0 0 0 0 0 0 0 0 0 0 0 0 0 0 0 0 0 0 1 1 1 1 1 1 1 2 2 2 2 2 2 2 2 2 2 2 1 1 1 1 1
0 0 0 0 0 0 0 0 0 0 0 0 0 0 0 0 0 0 0 0 1 1 1 1 1 1 1 1 2 2 2 2 2 2 2 2 2 2 2 1 1 1 1
0 0 0 0 0 0 0 0 0 0 0 0 0 0 0 0 0 0 0 0 1 1 1 1 1 1 1 1 2 2 2 2 2 2 2 2 2 2 2 1 1 1 1
0 0 0 0 0 0 0 0 0 0 0 0 0 0 0 0 0 0 0 0 0 1 1 1 1 1 1 1 1 2 2 2 2 1 2 2 2 2 2 2 2 1 1
0 0 0 0 0 0 0 0 0 0 0 0 0 0 0 0 0 0 0 0 0 0 1 1 1 1 1 1 1 1 2 2 2 1 1 2 2 2 2 2 2 2 1
0 0 0 0 0 0 0 0 0 0 0 0 0 0 0 0 0 0 0 0 0 0 0 1 1 1 1 1 1 1 1 2 2 2 1 1 2 2 2 3 2 2 2
0 0 0 0 0 0 0 0 0 0 0 0 0 0 0 0 0 0 0 0 0 0 0 0 1 1 1 1 1 1 1 1 1 1 1 1 1 2 2 2 3 2 2
0 0 0 0 0 0 0 0 0 0 0 0 0 0 0 0 0 0 0 0 0 0 0 0 0 0 0 1 1 1 1 1 1 1 1 1 1 1 2 2 2 2 2
0 0 0 0 0 0 0 0 0 0 0 0 0 0 0 0 0 0 0 0 0 0 0 0 0 0 0 0 0 0 1 0 1 1 1 1 1 1 1 2 2 2 2
0 0 0 0 0 0 0 0 0 0 0 0 0 0 0 0 0 0 0 0 0 0 0 0 0 0 0 0 0 0 1 1 1 1 1 1 1 1 1 2 2 1 1
0 0 0 0 0 0 0 0 0 0 0 0 0 0 0 0 0 0 0 0 0 0 0 0 0 0 0 0 0 0 1 1 1 0 0 1 1 1 1 1 1 1 1
0 0 0 0 0 0 0 0 0 0 0 0 0 0 0 0 0 0 0 0 0 0 0 0 0 0 0 0 0 0 0 1 0 0 0 0 1 1 1 1 1 1 1
0 0 0 0 0 0 0 0 0 0 0 0 0 0 0 0 0 0 0 0 0 0 0 0 0 0 0 0 0 0 0 0 0 0 0 0 0 1 1 1 1 1 1
0 0 0 0 0 0 0 0 0 0 0 0 0 0 0 0 0 0 0 0 0 0 0 0 0 0 0 0 0 0 0 0 0 0 0 0 0 1 1 1 1 1 0
0 0 0 0 0 0 0 0 0 0 0 0 0 0 0 0 0 0 0 0 0 0 0 0 0 0 0 0 0 0 0 0 0 0 1 1 1 1 1 1 1 1 1
0 0 0 0 0 0 0 0 0 0 0 0 0 0 0 0 0 0 0 0 0 0 0 0 0 0 0 0 0 0 0 0 0 0 0 1 0 0 1 1 1 1 1
0 0 0 0 0 0 0 0 0 0 0 0 0 0 0 0 0 0 0 0 0 0 0 0 0 0 0 0 0 0 0 0 0 0 0 0 0 0 0 1 1 1 1
0 0 0 0 0 0 0 0 0 0 0 0 0 0 0 0 0 0 0 0 0 0 0 0 0 0 0 0 0 0 0 0 0 0 0 0 0 0 0 0 1 1 1
0 0 0 0 0 0 0 0 0 0 0 0 0 0 0 0 0 0 0 0 0 0 0 0 0 0 0 0 0 0 0 0 0 0 0 0 0 0 0 0 0 1 1
0 0 0 0 0 0 0 0 0 0 0 0 0 0 0 0 0 0 0 0 0 0 0 0 0 0 0 0 0 0 0 0 0 0 0 0 0 0 0 0 0 0 0
0 0 0 0 0 0 0 0 0 0 0 0 0 0 0 0 0 0 0 0 0 0 0 0 0 0 0 0 0 0 0 0 0 0 0 0 0 0 0 0 0 0 1
0 0 0 0 0 0 0 0 0 0 0 0 0 0 0 0 0 0 0 0 0 0 0 0 0 0 0 0 0 0 0 0 0 0 0 0 0 0 0 0 0 0 1
0 0 0 0 0 0 0 0 0 0 0 0 0 0 0 0 0 0 0 0 0 0 0 0 0 0 0 0 0 0 0 0 0 0 0 0 0 0 0 0 0 0 1
Wind_Speed
3 4 5 6 7 8 9 9 9 9 8 7 7 6 6 6 5 5 6 6 6 6 6 5 6 5 5 6 6 5 6 5 4 3 3 4 6 6 5 6 6 7 6
4 4 5 6 7 8 9 10 9 9 9 7 7 6 7 6 5 4 5 6 6 5 5 5 5 5 5 6 6 6 4 4 4 4 3 3 4 5 6 6 6 7 7
5 5 5 6 7 8 9 8 9 9 9 8 6 6 5 5 4 5 4 5 5 5 5 6 5 5 5 5 6 6 7 5 5 4 3 3 4 3 4 7 7 6 5
4 4 5 6 7 8 8 9 9 9 9 8 7 8 6 6 7 6 5 6 5 4 4 5 5 5 5 5 6 6 5 6 5 5 4 3 2 3 3 4 6 6 7
3 4 4 5 6 7 7 8 8 8 9 8 7 7 7 6 6 6 6 6 5 5 5 5 5 5 4 5 6 5 6 5 6 5 5 5 3 4 3 3 4 4 4
2 3 3 4 5 6 6 7 8 8 8 8 8 8 8 8 8 8 7 6 5 4 5 5 4 4 4 4 5 5 6 6 7 6 6 5 5 5 4 4 3 4 3
2 3 4 4 5 6 6 7 7 8 8 8 8 8 8 8 8 7 7 7 5 5 6 5 4 4 4 4 4 5 5 6 6 6 5 5 5 4 4 4 3 3 2
2 2 3 4 5 5 6 6 7 8 8 8 8 8 8 6 5 7 7 6 5 5 6 6 5 4 4 4 4 4 4 4 5 6 6 4 5 5 4 4 4 3 3
2 3 3 3 4 4 5 6 7 7 7 8 8 8 8 7 7 7 7 6 6 5 7 6 5 4 4 4 3 3 3 3 4 5 5 5 4 4 4 4 5 5 5
3 3 3 3 3 3 4 5 5 6 6 7 7 6 7 7 7 7 7 7 7 6 6 6 5 5 4 3 3 3 2 3 3 3 4 4 4 4 4 4 4 5 5
4 3 2 3 3 3 3 4 4 5 6 7 7 7 7 7 7 7 7 7 6 6 6 6 5 4 4 3 2 2 2 3 3 4 5 5 5 4 3 3 4 4 4
4 3 3 3 3 3 3 4 4 4 5 6 6 6 7 6 7 7 8 7 7 6 6 5 5 4 4 3 2 2 2 3 3 4 4 5 4 5 4 4 4 4 5
5 4 3 3 3 3 3 3 4 4 4 5 5 6 6 7 8 8 7 7 7 7 7 6 5 5 4 3 2 2 2 3 3 4 4 4 4 5 4 4 4 4 4
5 5 4 3 3 3 3 3 3 3 4 4 5 5 6 6 7 7 7 7 8 7 7 7 6 6 5 4 3 3 2 2 2 3 3 4 4 4 4 4 5 4 5
6 6 5 4 3 3 2 2 3 2 3 3 4 5 6 5 6 6 7 7 8 8 7 7 7 7 5 6 6 4 3 2 2 2 2 1 2 2 2 2 3 4 5
6 6 5 5 4 3 2 2 2 2 2 3 4 4 5 5 5 6 6 7 7 7 7 7 7 7 6 8 8 7 3 2 2 1 1 1 2 2 3 2 2 3 4
6 6 6 5 4 3 2 2 1 1 2 2 2 3 4 4 5 5 6 6 6 7 8 8 7 6 7 8 8 7 4 3 2 2 1 0 0 2 2 3 4 4 4
6 6 6 5 5 3 3 2 2 2 2 2 2 2 3 4 4 5 5 6 6 6 6 7 7 6 7 9 9 8 4 3 3 2 2 1 1 2 1 1 2 2 2
5 5 6 5 5 4 4 4 3 2 2 2 2 2 2 3 4 4 5 5 5 5 5 6 6 6 6 9 9 8 3 3 4 4 4 3 3 4 3 1 1 1 2
4 4 5 6 6 5 5 5 4 3 3 2 2 2 2 2 3 4 4 4 4 4 4 4 5 6 6 8 9 9 3 3 3 4 4 6 6 5 5 1 2 2 2
4 5 6 6 5 5 6 7 5 4 3 3 3 3 3 3 3 3 3 3 3 4 4 4 4 4 5 6 8 9 4 4 3 3 3 5 7 6 6 3 3 3 2
4 5 5 6 5 6 7 7 6 5 4 4 4 4 4 3 3 3 3 3 3 3 3 3 3 3 3 4 6 7 7 6 3 3 3 4 6 6 6 4 5 3 2
4 4 6 6 5 6 7 8 6 6 6 6 6 5 5 4 4 4 4 3 3 3 3 3 3 2 2 2 2 3 4 5 3 3 5 4 3 2 3 5 3 1 2
4 4 5 6 6 6 7 8 6 6 7 7 7 6 6 5 5 4 4 4 4 3 3 3 3 2 2 2 1 1 0 1 1 1 2 2 2 1 2 2 1 2 2
3 4 5 6 6 6 6 7 7 7 8 9 8 7 6 6 5 5 4 5 4 3 4 4 3 3 3 2 4 4 3 3 2 2 1 1 1 1 2 2 2 2 2
1 3 4 6 6 6 6 6 6 8 9 9 8 6 6 5 6 6 5 8 8 5 7 8 7 5 3 2 3 4 4 4 4 4 2 2 1 1 1 1 2 2 2
Wind_Direction
335 347 342 339 338 344 342 341 336 341 341 338 333 331 330 326 324 325 325 314 305 299 282 275 269 262 255 251 243 236 228 221 209 209 225 226 232 233 219 225 228 223 219
322 343 337 340 343 345 344 340 340 341 342 338 326 319 317 313 319 321 320 319 315 307 292 279 271 259 256 250 245 231 229 218 198 199 201 215 216 229 227 218 222 223 210
315 335 341 342 341 345 347 340 339 337 341 337 328 323 320 312 324 329 323 320 316 308 299 293 282 270 261 254 247 234 225 219 204 202 194 199 214 195 211 223 219 220 217
296 324 334 339 341 345 343 340 342 341 342 338 337 335 331 330 330 326 323 316 311 307 301 292 284 276 266 257 249 238 232 224 212 204 211 219 202 201 198 211 219 214 216
294 317 328 334 339 344 343 343 345 346 348 346 345 332 335 334 331 330 330 327 327 320 311 300 287 277 268 265 259 249 239 229 222 211 199 202 207 217 217 207 207 211 215
283 306 323 329 337 343 343 345 347 350 349 347 343 345 342 339 339 341 339 333 328 324 328 317 298 286 277 267 261 252 240 237 230 223 213 204 197 202 208 210 205 211 208
283 305 318 328 337 342 343 343 347 347 349 347 348 349 346 338 339 339 336 333 331 330 333 328 311 305 294 280 267 256 246 239 235 228 222 220 219 208 207 208 200 209 204
263 289 310 321 327 337 341 341 345 346 350 349 350 347 350 342 342 339 333 331 329 333 332 327 318 311 300 288 270 265 252 243 236 231 224 223 223 216 208 205 192 200 207
248 276 299 310 320 331 340 342 342 344 348 350 348 348 347 346 341 339 338 334 332 332 334 330 327 328 314 297 282 265 256 245 237 234 227 223 221 218 211 207 202 202 210
244 264 292 305 316 327 331 339 338 340 347 347 350 349 345 345 342 339 343 341 341 338 330 330 331 326 321 303 287 269 256 248 239 232 231 225 219 216 213 207 206 214 221
242 260 284 302 307 310 320 332 336 338 346 347 348 348 351 349 346 348 348 342 344 344 341 340 336 328 324 312 297 285 270 248 241 235 229 224 218 214 209 208 209 214 214
237 247 265 280 289 301 316 330 337 340 345 344 345 350 350 353 351 353 350 346 348 347 347 343 340 335 324 311 304 287 275 257 248 247 244 236 221 219 216 213 214 213 215
228 235 245 263 281 292 304 321 335 340 342 344 347 351 356 357 355 353 354 354 354 353 353 354 349 345 338 328 309 292 274 263 252 248 245 240 231 228 217 217 215 211 209
228 235 244 251 262 281 291 310 329 336 336 339 349 355 357 355 351 352 357 358 359 359 1 1 358 354 349 343 334 327 314 289 277 270 252 242 234 234 229 222 214 205 202
228 233 236 245 249 264 278 296 314 322 325 334 347 354 356 357 354 355 358 1 2 1 5 5 6 7 3 3 351 347 344 346 338 313 288 261 257 261 255 245 220 207 203
228 231 232 235 242 250 258 263 285 305 313 331 350 353 349 357 356 354 358 3 1 2 5 6 8 8 15 15 4 343 350 350 341 332 292 216 196 192 213 234 244 233 213
227 228 229 228 233 237 244 250 273 280 293 325 347 343 348 356 351 351 358 359 1 6 4 9 9 13 21 16 9 353 338 354 356 354 2 5 111 238 210 185 198 205 218
226 222 223 218 223 224 219 226 232 248 279 310 329 344 343 350 348 349 352 351 357 4 4 8 9 15 22 16 5 344 346 13 21 30 32 40 61 51 328 225 206 200 207
220 215 215 213 215 215 212 218 224 229 249 279 301 321 329 338 342 346 347 347 352 358 1 10 6 9 22 20 5 345 14 23 28 33 34 26 52 43 350 265 145 121 93
202 200 204 209 213 211 210 223 231 233 238 250 267 283 299 312 325 336 338 342 342 344 346 4 2 9 16 25 10 350 8 22 29 31 44 55 39 26 359 29 114 116 104
197 197 203 209 214 211 213 228 233 237 235 236 243 247 256 273 297 313 320 325 334 337 340 354 359 8 16 26 22 3 1 14 20 27 33 50 41 34 26 15 69 77 89
196 200 207 213 212 213 222 234 239 239 228 229 237 243 251 261 269 278 293 302 311 315 327 335 350 358 28 27 29 17 11 352 17 28 32 49 42 41 39 51 64 69 98
204 205 217 222 217 215 227 241 238 232 228 230 236 241 244 244 252 263 268 274 279 296 318 328 337 348 1 51 71 25 15 0 2 38 46 38 39 59 91 77 60 112 123
221 216 223 231 230 225 229 243 246 233 233 237 243 240 244 244 238 243 258 266 274 280 289 302 314 324 324 333 354 5 126 158 186 107 113 128 55 75 85 119 112 85 77
234 229 234 243 248 239 236 239 239 238 240 244 245 244 242 249 254 243 247 259 262 276 283 294 295 298 304 19 1 323 331 340 354 321 251 207 175 153 135 124 109 128 144
279 248 251 257 262 258 252 246 237 238 245 250 250 247 243 238 243 249 240 219 237 238 236 252 273 276 266 272 264 277 296 307 304 281 249 233 218 198 181 173 162 166 162